This is the latest recevied weather packets stored in our database for station/object OK2JF-6. If no packets are shown the sender has not sent any weather packets the latest 10 day(s).
| Time | Temp. | Humidity | Pressure | Rain* | Wind** | Luminosity | Snow |
|---|---|---|---|---|---|---|---|
| 1777505223 | -1.11° C | 64% | 1100.3 hPa | 0 mm | - | 0 W/m² | - |
| 1777504983 | -0.56° C | 65% | 1100.4 hPa | 0 mm | - | 0 W/m² | - |
| 1777504443 | -0.56° C | 62% | 1100.4 hPa | 0 mm | - | 0 W/m² | - |
| 1777504143 | -0.56° C | 62% | 1100.6 hPa | 0 mm | - | 0 W/m² | - |
| 1777503423 | 0° C | 60% | 1100.4 hPa | 0 mm | - | 0 W/m² | - |
| 1777503183 | 0° C | 62% | 1100.3 hPa | 0 mm | - | 0 W/m² | - |
| 1777502883 | 0.56° C | 61% | 1100.4 hPa | 0 mm | - | 0 W/m² | - |
| 1777502763 | 0.56° C | 61% | 1100.2 hPa | 0 mm | - | 0 W/m² | - |
| 1777502343 | 0.56° C | 59% | 1100.2 hPa | 0 mm | - | 0 W/m² | - |
| 1777502043 | 0.56° C | 59% | 1100.1 hPa | 0 mm | - | 0 W/m² | - |
| 1777501997 | 0.56° C | 59% | 1100.1 hPa | 0 mm | - | 0 W/m² | - |
| 1777501383 | 0.56° C | 58% | 1100.1 hPa | 0 mm | - | 0 W/m² | - |
| 1777501157 | 0.56° C | 59% | 1100.3 hPa | 0 mm | - | 0 W/m² | - |
| 1777500843 | 0.56° C | 61% | 1100.1 hPa | 0 mm | - | 0 W/m² | - |
| 1777500723 | 0.56° C | 62% | 1100.1 hPa | 0 mm | - | 0 W/m² | - |
| 1777500543 | 0° C | 61% | 1100.3 hPa | 0 mm | - | 0 W/m² | - |
| 1777500363 | 0° C | 60% | 1100 hPa | 0 mm | - | 0 W/m² | - |
| 1777499943 | -0.56° C | 61% | 1100.1 hPa | 0 mm | - | 0 W/m² | - |
| 1777499763 | -0.56° C | 61% | 1100.1 hPa | 0 mm | - | 0 W/m² | - |
| 1777499537 | 0° C | 60% | 1100.2 hPa | 0 mm | - | 0 W/m² | - |
| 1777498923 | 0° C | 58% | 1100.1 hPa | 0 mm | - | 0 W/m² | - |
| 1777498803 | 0° C | 61% | 1099.8 hPa | 0 mm | - | 0 W/m² | - |
| 1777498683 | 0° C | 58% | 1100.1 hPa | 0 mm | - | 0 W/m² | - |
| 1777498623 | 0.56° C | 59% | 1099.8 hPa | 0 mm | - | 0 W/m² | - |
| 1777498443 | 0.56° C | 56% | 1100.2 hPa | 0 mm | - | 0 W/m² | - |
* Rain latest hour (hover to see other rain measurements)
** Current wind speed in m/s (hover to see current wind gust speed)